This is the latest recevied weather packets stored in our database for station/object DK4DO-10. If no packets are shown the sender has not sent any weather packets the latest 10 day(s).
| Time | Temp. | Humidity | Pressure | Rain* | Wind** | Luminosity | Snow |
|---|---|---|---|---|---|---|---|
| 1777940582 | 16.67° C | 52% | 1005.9 hPa | - | - | - | - |
| 1777939989 | 16.67° C | 54% | 1006.1 hPa | - | - | - | - |
| 1777939388 | 16.67° C | 52% | 1006.2 hPa | - | - | - | - |
| 1777938788 | 16.67° C | 52% | 1006.4 hPa | - | - | - | - |
| 1777938188 | 16.67° C | 54% | 1006.5 hPa | - | - | - | - |
| 1777937588 | 16.67° C | 52% | 1006.5 hPa | - | - | - | - |
| 1777936988 | 17.22° C | 52% | 1006.5 hPa | - | - | - | - |
| 1777936386 | 17.22° C | 49% | 1006.6 hPa | - | - | - | - |
| 1777935786 | 17.22° C | 50% | 1006.6 hPa | - | - | - | - |
| 1777935186 | 17.22° C | 51% | 1006.8 hPa | - | - | - | - |
| 1777934586 | 16.67° C | 51% | 1006.8 hPa | - | - | - | - |
| 1777933985 | 17.22° C | 50% | 1007 hPa | - | - | - | - |
| 1777933385 | 17.22° C | 49% | 1007 hPa | - | - | - | - |
| 1777932785 | 17.22° C | 49% | 1007.2 hPa | - | - | - | - |
| 1777932185 | 17.22° C | 49% | 1007.3 hPa | - | - | - | - |
| 1777931584 | 17.78° C | 48% | 1007.4 hPa | - | - | - | - |
| 1777930984 | 17.22° C | 49% | 1007.4 hPa | - | - | - | - |
| 1777930384 | 17.22° C | 49% | 1007.3 hPa | - | - | - | - |
| 1777929784 | 17.78° C | 48% | 1007.4 hPa | - | - | - | - |
| 1777929183 | 17.78° C | 48% | 1007.5 hPa | - | - | - | - |
| 1777928583 | 17.78° C | 47% | 1007.5 hPa | - | - | - | - |
| 1777927983 | 17.78° C | 47% | 1007.4 hPa | - | - | - | - |
| 1777927383 | 17.78° C | 47% | 1007.4 hPa | - | - | - | - |
| 1777926783 | 17.78° C | 47% | 1007.5 hPa | - | - | - | - |
| 1777926185 | 17.78° C | 48% | 1007.4 hPa | - | - | - | - |
* Rain since midnight (hover to see other rain measurements)
** Current wind speed in m/s (hover to see current wind gust speed)